TimeCST,TemperatureF,Dew PointF,Humidity,Sea Level PressureIn,VisibilityMPH,Wind Direction,Wind SpeedMPH,Gust SpeedMPH,PrecipitationIn,Events,Conditions,WindDirDegrees,DateUTC
12:53 AM,37.9,28.0,68,30.27,10.0,Calm,Calm,-,N/A,,Clear,0,2012-11-15 06:53:00
1:53 AM,37.0,28.0,70,30.27,10.0,Calm,Calm,-,N/A,,Clear,0,2012-11-15 07:53:00
2:53 AM,34.0,28.0,79,30.27,10.0,Calm,Calm,-,N/A,,Clear,0,2012-11-15 08:53:00
3:53 AM,35.1,27.0,72,30.27,10.0,Calm,Calm,-,N/A,,Clear,0,2012-11-15 09:53:00
4:53 AM,39.0,30.9,73,30.26,10.0,South,5.8,-,N/A,,Partly Cloudy,170,2012-11-15 10:53:00
5:53 AM,41.0,28.9,62,30.27,10.0,Calm,Calm,-,N/A,,Partly Cloudy,0,2012-11-15 11:53:00
6:53 AM,41.0,30.9,67,30.27,10.0,SSE,3.5,-,N/A,,Scattered Clouds,160,2012-11-15 12:53:00
7:53 AM,39.9,33.1,77,30.30,10.0,Calm,Calm,-,N/A,,Clear,0,2012-11-15 13:53:00
8:53 AM,44.1,34.0,68,30.31,10.0,Calm,Calm,-,N/A,,Partly Cloudy,0,2012-11-15 14:53:00
9:53 AM,46.9,30.9,54,30.33,10.0,SSW,6.9,-,N/A,,Clear,210,2012-11-15 15:53:00
10:53 AM,51.1,30.9,46,30.33,10.0,Variable,3.5,-,N/A,,Clear,0,2012-11-15 16:53:00
11:53 AM,53.1,32.0,45,30.32,10.0,West,3.5,-,N/A,,Clear,260,2012-11-15 17:53:00
12:53 PM,54.0,32.0,43,30.30,10.0,Calm,Calm,-,N/A,,Mostly Cloudy,0,2012-11-15 18:53:00
1:53 PM,55.0,33.1,43,30.30,10.0,Calm,Calm,-,N/A,,Overcast,0,2012-11-15 19:53:00
2:53 PM,55.9,34.0,44,30.31,10.0,NNE,5.8,-,N/A,,Overcast,30,2012-11-15 20:53:00
3:53 PM,55.9,33.1,42,30.31,10.0,Calm,Calm,-,N/A,,Mostly Cloudy,0,2012-11-15 21:53:00
4:53 PM,51.1,37.0,59,30.32,10.0,Calm,Calm,-,N/A,,Mostly Cloudy,0,2012-11-15 22:53:00
5:53 PM,45.0,36.0,71,30.34,10.0,North,5.8,-,N/A,,Mostly Cloudy,350,2012-11-15 23:53:00
6:53 PM,46.9,37.0,68,30.36,10.0,North,5.8,-,N/A,,Overcast,350,2012-11-16 00:53:00
7:53 PM,44.1,37.0,76,30.38,10.0,Calm,Calm,-,N/A,,Scattered Clouds,0,2012-11-16 01:53:00
8:53 PM,39.0,32.0,76,30.40,10.0,SE,35.7,59.8,N/A,,Clear,140,2012-11-16 02:53:00
9:53 PM,34.0,30.0,85,30.41,10.0,Calm,Calm,-,N/A,,Clear,0,2012-11-16 03:53:00
10:53 PM,35.1,32.0,89,30.41,10.0,Calm,Calm,-,N/A,,Clear,0,2012-11-16 04:53:00
11:53 PM,33.1,30.9,92,30.42,10.0,Calm,Calm,-,N/A,,Clear,0,2012-11-16 05:53:00